Location: Go?cza
(50.3372°N, 19.9313°E)
Time: 22:15:27
(UTC+00:00)

SJ 16-02 - Pass Details

Date: 23 May 2024
Orbit: 594 x 606 km, 75.0° (Epoch: 22 June)

Event Time Altitude Azimuth Distance (km) Brightness Sun altitude
Exits shadow 00:03:50 - 139° (SE) 2,049 3.8 -16.5°
Reaches altitude 10° 00:04:18 10° 134° (SE) 1,928 3.7 -16.5°
Maximum altitude 00:06:57 16° 96° (E) 1,568 3.6 -16.3°
Drops below altitude 10° 00:09:37 10° 58° (ENE) 1,937 4.7 -16.1°
Sets 00:12:32 0° 37° (NE) 2,845 6.4 -16.0°
